����������;��������(kWh)
2019-03-04 00:00;88,9
2019-03-04 00:15;87,25
2019-03-04 00:30;89,75
2019-03-04 00:45;92,55
2019-03-04 01:00;90,6
2019-03-04 01:15;87,55
2019-03-04 01:30;87,05
2019-03-04 01:45;88,35
2019-03-04 02:00;86,05
2019-03-04 02:15;85,9
2019-03-04 02:30;85
2019-03-04 02:45;84,55
2019-03-04 03:00;84,9
2019-03-04 03:15;83,1
2019-03-04 03:30;85,7
2019-03-04 03:45;83,6
2019-03-04 04:00;85,35
2019-03-04 04:15;82,05
2019-03-04 04:30;81,2
2019-03-04 04:45;82,65
2019-03-04 05:00;84
2019-03-04 05:15;84,45
2019-03-04 05:30;84,9
2019-03-04 05:45;84,4
2019-03-04 06:00;85,1
2019-03-04 06:15;84,2
2019-03-04 06:30;84,65
2019-03-04 06:45;81,95
2019-03-04 07:00;80,95
2019-03-04 07:15;87,75
2019-03-04 07:30;135
2019-03-04 07:45;150,3
2019-03-04 08:00;130,8
2019-03-04 08:15;161,55
2019-03-04 08:30;177,65
2019-03-04 08:45;201,35
2019-03-04 09:00;225,1
2019-03-04 09:15;247,5
2019-03-04 09:30;229,25
2019-03-04 09:45;242,75
2019-03-04 10:00;245,15
2019-03-04 10:15;257
2019-03-04 10:30;254,45
2019-03-04 10:45;262,35
2019-03-04 11:00;267,8
2019-03-04 11:15;272,05
2019-03-04 11:30;275,45
2019-03-04 11:45;285,7
2019-03-04 12:00;284,6
2019-03-04 12:15;278,65
2019-03-04 12:30;277
2019-03-04 12:45;291,2
2019-03-04 13:00;286,4
2019-03-04 13:15;281,7
2019-03-04 13:30;279,85
2019-03-04 13:45;279,2
2019-03-04 14:00;279
2019-03-04 14:15;277,95
2019-03-04 14:30;277
2019-03-04 14:45;270,6
2019-03-04 15:00;253,05
2019-03-04 15:15;242,75
2019-03-04 15:30;235,2
2019-03-04 15:45;220,7
2019-03-04 16:00;220,45
2019-03-04 16:15;207,8
2019-03-04 16:30;201,1
2019-03-04 16:45;201,35
2019-03-04 17:00;192,05
2019-03-04 17:15;191,6
2019-03-04 17:30;188,5
2019-03-04 17:45;195,55
2019-03-04 18:00;203,2
2019-03-04 18:15;201,45
2019-03-04 18:30;201,85
2019-03-04 18:45;188,55
2019-03-04 19:00;176,9
2019-03-04 19:15;176,9
2019-03-04 19:30;177,7
2019-03-04 19:45;179,7
2019-03-04 20:00;171,25
2019-03-04 20:15;168,5
2019-03-04 20:30;168,15
2019-03-04 20:45;164,65
2019-03-04 21:00;159,4
2019-03-04 21:15;147,3
2019-03-04 21:30;145,5
2019-03-04 21:45;139,85
2019-03-04 22:00;138,5
2019-03-04 22:15;135
2019-03-04 22:30;130,9
2019-03-04 22:45;130,65
2019-03-04 23:00;136,85
2019-03-04 23:15;132,5
2019-03-04 23:30;132,7
2019-03-04 23:45;130,15
2019-03-05 00:00;122,85
2019-03-05 00:15;121,3
2019-03-05 00:30;119,9
2019-03-05 00:45;119,5
2019-03-05 01:00;127,25
2019-03-05 01:15;128,5
2019-03-05 01:30;125,55
2019-03-05 01:45;124,6
2019-03-05 02:00;125,4
2019-03-05 02:15;124,35
2019-03-05 02:30;127,15
2019-03-05 02:45;128,7
2019-03-05 03:00;127,4
2019-03-05 03:15;126,9
2019-03-05 03:30;124,5
2019-03-05 03:45;126,25
2019-03-05 04:00;121,1
2019-03-05 04:15;117,8
2019-03-05 04:30;120,25
2019-03-05 04:45;118,9
2019-03-05 05:00;116,75
2019-03-05 05:15;114,8
2019-03-05 05:30;114,45
2019-03-05 05:45;114,95
2019-03-05 06:00;117,45
2019-03-05 06:15;114,45
2019-03-05 06:30;115,35
2019-03-05 06:45;115,6
2019-03-05 07:00;114
2019-03-05 07:15;117,25
2019-03-05 07:30;170,7
2019-03-05 07:45;143,25
2019-03-05 08:00;149,4
2019-03-05 08:15;152,4
2019-03-05 08:30;175,2
2019-03-05 08:45;190,15
2019-03-05 09:00;185,1
2019-03-05 09:15;199,7
2019-03-05 09:30;212,85
2019-03-05 09:45;217,7
2019-03-05 10:00;229,45
2019-03-05 10:15;227,4
2019-03-05 10:30;225,25
2019-03-05 10:45;244,8
2019-03-05 11:00;246,5
2019-03-05 11:15;251,65
2019-03-05 11:30;253
2019-03-05 11:45;254,8
2019-03-05 12:00;253,45
2019-03-05 12:15;253,9
2019-03-05 12:30;235,85
2019-03-05 12:45;245,05
2019-03-05 13:00;245,65
2019-03-05 13:15;242,5
2019-03-05 13:30;237,55
2019-03-05 13:45;234,3
2019-03-05 14:00;225,8
2019-03-05 14:15;222,45
2019-03-05 14:30;231,7
2019-03-05 14:45;229
2019-03-05 15:00;213,9
2019-03-05 15:15;214,65
2019-03-05 15:30;210,5
2019-03-05 15:45;199,8
2019-03-05 16:00;201,2
2019-03-05 16:15;193,2
2019-03-05 16:30;198,8
2019-03-05 16:45;192,2
2019-03-05 17:00;183,25
2019-03-05 17:15;183,15
2019-03-05 17:30;172,95
2019-03-05 17:45;177,15
2019-03-05 18:00;176,3
2019-03-05 18:15;174,4
2019-03-05 18:30;173,9
2019-03-05 18:45;174
2019-03-05 19:00;171,65
2019-03-05 19:15;165,55
2019-03-05 19:30;159,95
2019-03-05 19:45;159,55
2019-03-05 20:00;156,1
2019-03-05 20:15;149,1
2019-03-05 20:30;152,35
2019-03-05 20:45;148,55
2019-03-05 21:00;145,25
2019-03-05 21:15;137,75
2019-03-05 21:30;132,35
2019-03-05 21:45;126,25
2019-03-05 22:00;128,6
2019-03-05 22:15;124,95
2019-03-05 22:30;121,85
2019-03-05 22:45;125,8
2019-03-05 23:00;127,75
2019-03-05 23:15;126,95
2019-03-05 23:30;126,7
2019-03-05 23:45;128
2019-03-06 00:00;118,7
2019-03-06 00:15;117,25
2019-03-06 00:30;116,25
2019-03-06 00:45;116,35
2019-03-06 01:00;116,45
2019-03-06 01:15;116,8
2019-03-06 01:30;117,1
2019-03-06 01:45;116,05
2019-03-06 02:00;112,85
2019-03-06 02:15;112,2
2019-03-06 02:30;113,75
2019-03-06 02:45;115,35
2019-03-06 03:00;116,4
2019-03-06 03:15;119,9
2019-03-06 03:30;113,8
2019-03-06 03:45;113,2
2019-03-06 04:00;115
2019-03-06 04:15;113,25
2019-03-06 04:30;118,85
2019-03-06 04:45;119
2019-03-06 05:00;120,05
2019-03-06 05:15;116,05
2019-03-06 05:30;116,6
2019-03-06 05:45;113,55
2019-03-06 06:00;109,95
2019-03-06 06:15;109,9
2019-03-06 06:30;117,05
2019-03-06 06:45;113,65
2019-03-06 07:00;113,35
2019-03-06 07:15;114,45
2019-03-06 07:30;172,3
2019-03-06 07:45;129,85
2019-03-06 08:00;142,45
2019-03-06 08:15;138,2
2019-03-06 08:30;156
2019-03-06 08:45;168,45
2019-03-06 09:00;172,45
2019-03-06 09:15;183,7
2019-03-06 09:30;179
2019-03-06 09:45;195,8
2019-03-06 10:00;186,55
2019-03-06 10:15;183,95
2019-03-06 10:30;185,95
2019-03-06 10:45;181,05
2019-03-06 11:00;192,4
2019-03-06 11:15;195,85
2019-03-06 11:30;200,85
2019-03-06 11:45;200
2019-03-06 12:00;193,5
2019-03-06 12:15;195,7
2019-03-06 12:30;188,6
2019-03-06 12:45;204,2
2019-03-06 13:00;196,85
2019-03-06 13:15;191,45
2019-03-06 13:30;182,7
2019-03-06 13:45;188,9
2019-03-06 14:00;182,55
2019-03-06 14:15;186,3
2019-03-06 14:30;189,25
2019-03-06 14:45;188,55
2019-03-06 15:00;176,95
2019-03-06 15:15;171,4
2019-03-06 15:30;174,2
2019-03-06 15:45;158,85
2019-03-06 16:00;161,5
2019-03-06 16:15;154,05
2019-03-06 16:30;159,8
2019-03-06 16:45;151
2019-03-06 17:00;148,25
2019-03-06 17:15;155,55
2019-03-06 17:30;142,55
2019-03-06 17:45;146,95
2019-03-06 18:00;142,3
2019-03-06 18:15;140
2019-03-06 18:30;143,3
2019-03-06 18:45;147,15
2019-03-06 19:00;152,9
2019-03-06 19:15;154,6
2019-03-06 19:30;153,85
2019-03-06 19:45;151,65
2019-03-06 20:00;135,95
2019-03-06 20:15;138,6
2019-03-06 20:30;135
2019-03-06 20:45;129,8
2019-03-06 21:00;123,15
2019-03-06 21:15;119,2
2019-03-06 21:30;117,35
2019-03-06 21:45;115,55
2019-03-06 22:00;110,45
2019-03-06 22:15;109,9
2019-03-06 22:30;108,3
2019-03-06 22:45;108
2019-03-06 23:00;113
2019-03-06 23:15;114,8
2019-03-06 23:30;116,6
2019-03-06 23:45;116,65
2019-03-07 00:00;109,75
2019-03-07 00:15;107,9
2019-03-07 00:30;108,4
2019-03-07 00:45;110,4
2019-03-07 01:00;110,15
2019-03-07 01:15;108,45
2019-03-07 01:30;107,05
2019-03-07 01:45;105,85
2019-03-07 02:00;106,95
2019-03-07 02:15;102,85
2019-03-07 02:30;102,5
2019-03-07 02:45;102,7
2019-03-07 03:00;100,8
2019-03-07 03:15;101,15
2019-03-07 03:30;100,2
2019-03-07 03:45;100
2019-03-07 04:00;99,65
2019-03-07 04:15;99
2019-03-07 04:30;98,3
2019-03-07 04:45;98,6
2019-03-07 05:00;99,15
2019-03-07 05:15;100,95
2019-03-07 05:30;98,8
2019-03-07 05:45;100,25
2019-03-07 06:00;98,95
2019-03-07 06:15;99,2
2019-03-07 06:30;98
2019-03-07 06:45;97,5
2019-03-07 07:00;98,9
2019-03-07 07:15;102,05
2019-03-07 07:30;156,9
2019-03-07 07:45;121,25
2019-03-07 08:00;127
2019-03-07 08:15;123,9
2019-03-07 08:30;132,45
2019-03-07 08:45;139,95
2019-03-07 09:00;153,7
2019-03-07 09:15;151,3
2019-03-07 09:30;174,4
2019-03-07 09:45;193,5
2019-03-07 10:00;198,7
2019-03-07 10:15;205,2
2019-03-07 10:30;193,7
2019-03-07 10:45;199,3
2019-03-07 11:00;193,1
2019-03-07 11:15;208,4
2019-03-07 11:30;196,85
2019-03-07 11:45;208,15
2019-03-07 12:00;205,1
2019-03-07 12:15;194,7
2019-03-07 12:30;206,45
2019-03-07 12:45;205,35
2019-03-07 13:00;197,5
2019-03-07 13:15;193,65
2019-03-07 13:30;195,55
2019-03-07 13:45;190,25
2019-03-07 14:00;191,85
2019-03-07 14:15;184,9
2019-03-07 14:30;179,35
2019-03-07 14:45;182,45
2019-03-07 15:00;176,35
2019-03-07 15:15;180,8
2019-03-07 15:30;168,3
2019-03-07 15:45;173,15
2019-03-07 16:00;158,3
2019-03-07 16:15;158,7
2019-03-07 16:30;159,2
2019-03-07 16:45;156,25
2019-03-07 17:00;164,5
2019-03-07 17:15;158,2
2019-03-07 17:30;174,05
2019-03-07 17:45;162,65
2019-03-07 18:00;154,7
2019-03-07 18:15;152,95
2019-03-07 18:30;165,3
2019-03-07 18:45;168
2019-03-07 19:00;160,2
2019-03-07 19:15;156,6
2019-03-07 19:30;155,6
2019-03-07 19:45;151,4
2019-03-07 20:00;145,1
2019-03-07 20:15;138,3
2019-03-07 20:30;138,7
2019-03-07 20:45;140,35
2019-03-07 21:00;134,45
2019-03-07 21:15;133,1
2019-03-07 21:30;126,9
2019-03-07 21:45;121,4
2019-03-07 22:00;121,25
2019-03-07 22:15;120,35
2019-03-07 22:30;117,35
2019-03-07 22:45;115
2019-03-07 23:00;117
2019-03-07 23:15;114,6
2019-03-07 23:30;114,4
2019-03-07 23:45;114,75
2019-03-08 00:00;110,2
2019-03-08 00:15;109,6
2019-03-08 00:30;108,2
2019-03-08 00:45;108,8
2019-03-08 01:00;107,7
2019-03-08 01:15;107,1
2019-03-08 01:30;107,35
2019-03-08 01:45;104,9
2019-03-08 02:00;108,95
2019-03-08 02:15;108,55
2019-03-08 02:30;108,45
2019-03-08 02:45;107,2
2019-03-08 03:00;107,45
2019-03-08 03:15;108,6
2019-03-08 03:30;107,4
2019-03-08 03:45;105,65
2019-03-08 04:00;106,25
2019-03-08 04:15;104,6
2019-03-08 04:30;106,2
2019-03-08 04:45;109,25
2019-03-08 05:00;108,75
2019-03-08 05:15;103,85
2019-03-08 05:30;103,2
2019-03-08 05:45;104,9
2019-03-08 06:00;106,7
2019-03-08 06:15;105,9
2019-03-08 06:30;104
2019-03-08 06:45;100,05
2019-03-08 07:00;99,7
2019-03-08 07:15;105,05
2019-03-08 07:30;160,3
2019-03-08 07:45;119,7
2019-03-08 08:00;128,95
2019-03-08 08:15;125,55
2019-03-08 08:30;136,7
2019-03-08 08:45;134,8
2019-03-08 09:00;140,95
2019-03-08 09:15;148,45
2019-03-08 09:30;156,5
2019-03-08 09:45;152,6
2019-03-08 10:00;155,9
2019-03-08 10:15;178,4
2019-03-08 10:30;172,55
2019-03-08 10:45;170,75
2019-03-08 11:00;173,3
2019-03-08 11:15;190,7
2019-03-08 11:30;184,1
2019-03-08 11:45;182,6
2019-03-08 12:00;169,75
2019-03-08 12:15;174,05
2019-03-08 12:30;163,15
2019-03-08 12:45;168,4
2019-03-08 13:00;157,85
2019-03-08 13:15;160,7
2019-03-08 13:30;151,15
2019-03-08 13:45;153,5
2019-03-08 14:00;146,3
2019-03-08 14:15;156,2
2019-03-08 14:30;154,1
2019-03-08 14:45;145,2
2019-03-08 15:00;154,15
2019-03-08 15:15;140,2
2019-03-08 15:30;147,65
2019-03-08 15:45;136,2
2019-03-08 16:00;133,05
2019-03-08 16:15;142,1
2019-03-08 16:30;135,2
2019-03-08 16:45;137,8
2019-03-08 17:00;138,85
2019-03-08 17:15;133,15
2019-03-08 17:30;136,7
2019-03-08 17:45;125,1
2019-03-08 18:00;126,45
2019-03-08 18:15;123,05
2019-03-08 18:30;127,15
2019-03-08 18:45;132,7
2019-03-08 19:00;135,55
2019-03-08 19:15;131,85
2019-03-08 19:30;132,7
2019-03-08 19:45;128,85
2019-03-08 20:00;126,5
2019-03-08 20:15;121,9
2019-03-08 20:30;118,9
2019-03-08 20:45;119,8
2019-03-08 21:00;116,4
2019-03-08 21:15;112,4
2019-03-08 21:30;105,8
2019-03-08 21:45;102,95
2019-03-08 22:00;99,95
2019-03-08 22:15;97,7
2019-03-08 22:30;94
2019-03-08 22:45;92,5
2019-03-08 23:00;100,55
2019-03-08 23:15;94,45
2019-03-08 23:30;99,2
2019-03-08 23:45;98,85
2019-03-09 00:00;91
2019-03-09 00:15;93,55
2019-03-09 00:30;93,65
2019-03-09 00:45;93,2
2019-03-09 01:00;92,65
2019-03-09 01:15;92,1
2019-03-09 01:30;92
2019-03-09 01:45;93,35
2019-03-09 02:00;93
2019-03-09 02:15;91,05
2019-03-09 02:30;91
2019-03-09 02:45;88,7
2019-03-09 03:00;90,7
2019-03-09 03:15;91,1
2019-03-09 03:30;90,5
2019-03-09 03:45;88,85
2019-03-09 04:00;88
2019-03-09 04:15;86,95
2019-03-09 04:30;86,8
2019-03-09 04:45;87
2019-03-09 05:00;88,4
2019-03-09 05:15;84,8
2019-03-09 05:30;85,15
2019-03-09 05:45;83,4
2019-03-09 06:00;85,4
2019-03-09 06:15;83,3
2019-03-09 06:30;82,05
2019-03-09 06:45;79,55
2019-03-09 07:00;79,9
2019-03-09 07:15;80,85
2019-03-09 07:30;79,9
2019-03-09 07:45;80,2
2019-03-09 08:00;80,05
2019-03-09 08:15;79,65
2019-03-09 08:30;80,75
2019-03-09 08:45;79,05
2019-03-09 09:00;78,5
2019-03-09 09:15;78,25
2019-03-09 09:30;78,45
2019-03-09 09:45;80,6
2019-03-09 10:00;79,6
2019-03-09 10:15;78,65
2019-03-09 10:30;79,65
2019-03-09 10:45;80,6
2019-03-09 11:00;79,1
2019-03-09 11:15;79,7
2019-03-09 11:30;85,4
2019-03-09 11:45;81,1
2019-03-09 12:00;86,55
2019-03-09 12:15;87,95
2019-03-09 12:30;81,15
2019-03-09 12:45;83,55
2019-03-09 13:00;79,45
2019-03-09 13:15;81,15
2019-03-09 13:30;86,9
2019-03-09 13:45;86,3
2019-03-09 14:00;84,05
2019-03-09 14:15;84,2
2019-03-09 14:30;81,1
2019-03-09 14:45;80,1
2019-03-09 15:00;77,8
2019-03-09 15:15;80,45
2019-03-09 15:30;80,7
2019-03-09 15:45;78,25
2019-03-09 16:00;78,15
2019-03-09 16:15;80,1
2019-03-09 16:30;75,95
2019-03-09 16:45;81,75
2019-03-09 17:00;86,1
2019-03-09 17:15;84,4
2019-03-09 17:30;83,3
2019-03-09 17:45;87,2
2019-03-09 18:00;87,1
2019-03-09 18:15;86,1
2019-03-09 18:30;86,25
2019-03-09 18:45;92,85
2019-03-09 19:00;94,5
2019-03-09 19:15;90,7
2019-03-09 19:30;94,3
2019-03-09 19:45;92,6
2019-03-09 20:00;90,75
2019-03-09 20:15;92,1
2019-03-09 20:30;95,95
2019-03-09 20:45;94,05
2019-03-09 21:00;90,15
2019-03-09 21:15;91,75
2019-03-09 21:30;91,3
2019-03-09 21:45;87,25
2019-03-09 22:00;83,5
2019-03-09 22:15;85,8
2019-03-09 22:30;87,9
2019-03-09 22:45;83,55
2019-03-09 23:00;92,95
2019-03-09 23:15;88,55
2019-03-09 23:30;93,6
2019-03-09 23:45;97,35
2019-03-10 00:00;88,85
2019-03-10 00:15;87,35
2019-03-10 00:30;84,75
2019-03-10 00:45;85,05
2019-03-10 01:00;85,95
2019-03-10 01:15;86,35
2019-03-10 01:30;85,75
2019-03-10 01:45;84,2
2019-03-10 02:00;84,75
2019-03-10 02:15;86,4
2019-03-10 02:30;86,05
2019-03-10 02:45;83,95
2019-03-10 03:00;85,95
2019-03-10 03:15;0
2019-03-10 03:30;0
2019-03-10 03:45;0
2019-03-10 04:00;0
2019-03-10 04:15;0
2019-03-10 04:30;0
2019-03-10 04:45;0
2019-03-10 05:00;0
2019-03-10 05:15;0
2019-03-10 05:30;0
2019-03-10 05:45;0
2019-03-10 06:00;0
2019-03-10 06:15;0
2019-03-10 06:30;0
2019-03-10 06:45;0
2019-03-10 07:00;0
2019-03-10 07:15;0
2019-03-10 07:30;0
2019-03-10 07:45;0
2019-03-10 08:00;0
2019-03-10 08:15;0
2019-03-10 08:30;0
2019-03-10 08:45;0
2019-03-10 09:00;0
2019-03-10 09:15;0
2019-03-10 09:30;0
2019-03-10 09:45;0
2019-03-10 10:00;0
2019-03-10 10:15;0
2019-03-10 10:30;0
2019-03-10 10:45;0
2019-03-10 11:00;0
2019-03-10 11:15;0
2019-03-10 11:30;0
2019-03-10 11:45;0
2019-03-10 12:00;0
2019-03-10 12:15;0
2019-03-10 12:30;0
2019-03-10 12:45;0
2019-03-10 13:00;0
2019-03-10 13:15;0
2019-03-10 13:30;0
2019-03-10 13:45;0
2019-03-10 14:00;0
2019-03-10 14:15;0
2019-03-10 14:30;0
2019-03-10 14:45;0
2019-03-10 15:00;0
2019-03-10 15:15;0
2019-03-10 15:30;0
2019-03-10 15:45;0
2019-03-10 16:00;0
2019-03-10 16:15;0
2019-03-10 16:30;0
2019-03-10 16:45;0
2019-03-10 17:00;0
2019-03-10 17:15;0
2019-03-10 17:30;0
2019-03-10 17:45;0
2019-03-10 18:00;0
2019-03-10 18:15;0
2019-03-10 18:30;0
2019-03-10 18:45;0
2019-03-10 19:00;0
2019-03-10 19:15;0
2019-03-10 19:30;0
2019-03-10 19:45;0
2019-03-10 20:00;0
2019-03-10 20:15;0
2019-03-10 20:30;0
2019-03-10 20:45;0
2019-03-10 21:00;0
2019-03-10 21:15;0
2019-03-10 21:30;0
2019-03-10 21:45;0
2019-03-10 22:00;0
2019-03-10 22:15;0
2019-03-10 22:30;0
2019-03-10 22:45;0
2019-03-10 23:00;0
2019-03-10 23:15;0
2019-03-10 23:30;0
2019-03-10 23:45;0

